Torna al catalogo

COSMOS 1317

LostMilitareHEO
NORAD 12933·PAYLOAD·🇷🇺 Russia

Lanciato Oct 31, 1981 da Plesetsk Cosmodrome

Loading…

Prossimi Passaggi (prossime 24 ore)

TLE

ObsoletoSource: Space-Track

Epoca: Nov 6, 2025, 11:49 UTC

1 12933U 81108A   25310.49239420  .00000119  00000-0  00000-0 0  9991
2 12933  71.5073 119.7468 4749935 327.7124 272.1738  2.00242621321809

Traccia COSMOS 1317 in tempo reale con AllMySat

Download on the App Store